TimeEST,TemperatureF,Dew PointF,Humidity,Sea Level PressureIn,VisibilityMPH,Wind Direction,Wind SpeedMPH,Gust SpeedMPH,PrecipitationIn,Events,Conditions,WindDirDegrees,DateUTC
12:54 AM,35.1,28.0,76,29.83,10.0,WSW,3.5,-,N/A,,Clear,250,2008-12-31 05:54:00
1:54 AM,53.1,18.0,25,29.77,10.0,NW,26.5,38.0,N/A,,Clear,320,2008-12-31 06:54:00
2:54 AM,44.1,21.9,42,29.77,10.0,NNW,17.3,-,N/A,,Clear,330,2008-12-31 07:54:00
3:54 AM,42.1,21.0,43,29.77,10.0,NNW,10.4,-,N/A,,Clear,330,2008-12-31 08:54:00
4:54 AM,46.0,21.9,39,29.75,10.0,North,5.8,-,N/A,,Clear,350,2008-12-31 09:54:00
5:54 AM,46.0,26.1,46,29.77,10.0,North,3.5,-,N/A,,Clear,360,2008-12-31 10:54:00
6:54 AM,45.0,27.0,49,29.78,10.0,NNW,20.7,31.1,N/A,,Clear,340,2008-12-31 11:54:00
7:54 AM,43.0,26.1,51,29.80,10.0,NNW,18.4,27.6,N/A,,Clear,340,2008-12-31 12:54:00
8:54 AM,41.0,24.1,51,29.85,10.0,North,18.4,36.8,N/A,,Clear,360,2008-12-31 13:54:00
9:54 AM,37.9,21.9,53,29.93,10.0,North,19.6,38.0,N/A,,Mostly Cloudy,350,2008-12-31 14:54:00
10:54 AM,37.0,19.0,48,29.98,10.0,North,25.3,35.7,N/A,,Partly Cloudy,350,2008-12-31 15:54:00
11:54 AM,37.9,17.1,43,29.99,10.0,NNW,28.8,42.6,N/A,,Clear,330,2008-12-31 16:54:00
12:54 PM,37.9,14.0,38,29.99,10.0,North,26.5,40.3,N/A,,Clear,350,2008-12-31 17:54:00
1:54 PM,37.9,12.0,35,29.98,10.0,North,25.3,38.0,N/A,,Clear,350,2008-12-31 18:54:00
2:54 PM,37.9,12.0,35,30.02,10.0,NNW,21.9,29.9,N/A,,Clear,330,2008-12-31 19:54:00
3:54 PM,37.0,10.9,34,30.05,10.0,North,13.8,27.6,N/A,,Clear,350,2008-12-31 20:54:00
4:54 PM,35.1,10.9,37,30.08,10.0,NNW,17.3,29.9,N/A,,Clear,340,2008-12-31 21:54:00
6:54 PM,32.0,12.0,44,30.17,10.0,NNW,10.4,19.6,N/A,,Clear,330,2008-12-31 23:54:00
7:54 PM,30.9,10.9,43,30.19,10.0,North,11.5,23.0,N/A,,Clear,350,2009-01-01 00:54:00
8:54 PM,28.9,12.0,49,30.22,10.0,North,5.8,17.3,N/A,,Clear,360,2009-01-01 01:54:00
9:54 PM,28.0,10.9,49,30.24,10.0,North,13.8,18.4,N/A,,Clear,350,2009-01-01 02:54:00
10:54 PM,27.0,10.9,51,30.27,10.0,North,8.1,-,N/A,,Clear,360,2009-01-01 03:54:00
11:54 PM,26.1,12.0,55,30.28,10.0,North,10.4,-,N/A,,Clear,350,2009-01-01 04:54:00